Regional Weather Roundup
Issued by NWS Charleston, SC

Current Version | Previous Version | Text Only | Print | Product List | Glossary Off
Versions: 1 2 3 4 5 6 7 8 9 10 11 12 13 14 15 16 17 18 19 20 21 22 23 24 25 26 27 28 29 30 31 32 33 34 35 36 37 38 39 40 41 42 43 44 45 46 47 48 49 50
000 ASUS42 KCHS 241510 RWRCHS REGIONAL WEATHER ROUNDUP NATIONAL WEATHER SERVICE CHARLESTON SC 1000 AM EST WED DEC 24 2014 NOTE: "FAIR" INDICATES FEW OR NO CLOUDS BELOW 12,000 FEET WITH NO SIGNIFICANT WEATHER AND/OR OBSTRUCTIONS TO VISIBILITY. NOT ALL STATIONS ARE QUALITY CONTROLLED BY THE NATIONAL WEATHER SERVICE. USE DATA WITH CAUTION...ESPECIALLY DEWPOINT OBSERVATIONS. SCZ027-030-031-034>040-042>050-241600- ...SOUTHEAST SOUTH CAROLINA... CITY SKY/WX TMP DP RH WIND PRES REMARKS N CHARLESTON LGT RAIN 71 68 90 S20G31 29.84S FOG WATERFRONT PRK N/A 68 N/A N/A S15G22 N/A MOUNT PLEASANT LGT RAIN 72 72 100 S10G17 29.85S PINOPOLIS N/A 72 68 88 MISG 29.75R MONCKS CORNER CLOUDY 72 66 83 S15G25 29.82S SUMMERVILLE CLOUDY 70 68 94 S12G17 29.82S BEAUFORT MCAS CLOUDY 68 65 90 S21G32 29.84R BEAUFORT ARPT CLOUDY 64 64 100 S10G23 29.82R FOG HILTON HEAD IS CLOUDY 66 66 100 S14G23 29.84R WALTERBORO CLOUDY 70 N/A N/A S16G23 29.82S ALLENDALE CLOUDY 70 68 94 S12G21 29.76S ...SOUTHERN MIDLANDS AND PEE DEE... CITY SKY/WX TMP DP RH WIND PRES REMARKS GEORGETOWN NOT AVBL KINGSTREE NOT AVBL ORANGEBURG CLOUDY 69 65 86 S16G25 29.76F BARNWELL HVY RAIN 70 68 94 W17G25 29.79R AIKEN HVY RAIN 57 57 100 NE5 29.80S MANNING CLOUDY 68 N/A N/A S10G16 29.80R COLUMBIA RAIN 54 53 97 NW17 29.78R FOG SUMTER LGT RAIN 59 57 94 N2 29.76S FLORENCE LGT RAIN 68 65 90 S9 29.80S FOG MYRTLE BEACH LGT RAIN 70 66 88 SW15 29.84S FOG N MYRTLE BEACH TSTM 68 66 93 SW7 29.83S FOG $$ GAZ063-065-086>088-099>101-113>116-118-119-134>141-150-241600- ...SOUTHEAST GEORGIA... CITY SKY/WX TMP DP RH WIND PRES REMARKS SAVANNAH ARPT RAIN 68 65 90 S17 29.83R HUNTER AAF LGT RAIN 66 66 100 S8G17 29.82R FORT STEWART CLOUDY 70 66 88 S9 29.79F STATESBORO CLOUDY 69 69 100 S12G24 29.79R SYLVANIA CLOUDY 69 68 98 S8 29.80R CLAXTON DRIZZLE 68 68 100 S8 29.80R ...CSRA...CENTRAL AND FAR SOUTHEAST GEORGIA... CITY SKY/WX TMP DP RH WIND PRES REMARKS THOMSON CLOUDY 60 60 100 CALM 29.79R AUGUSTA-BUSH HVY RAIN 59 59 100 CALM 29.77R FOG AUGUSTA-DANIEL HVY RAIN 62 61 96 E3 29.76S FOG SWAINSBORO TSTM N/A N/A N/A S6 29.79R VIDALIA RAIN 70 68 94 NW10G17 29.80R EASTMAN LGT RAIN 66 66 100 SE6 29.77R HAZLEHURST HVY RAIN 71 71 100 W7G20 29.78R VSB 1/2 ALMA CLOUDY 70 67 90 S13 29.79R WAYCROSS CLOUDY 73 71 95 S14G20 29.80R JESUP LGT RAIN 72 70 94 SW7G16 29.80F BAXLEY RAIN 72 68 88 S15G22 29.77S BRUNSWICK CLOUDY 70 64 83 S5 29.84S SAINT SIMONS CLOUDY 66 64 93 S9 29.84S $$ SCZ027-028-034-036>038-045-046-048>050-GAZ119-141-241600- ...LAKE AND SUPPLEMENTAL COASTAL OBSERVATIONS... STATION/POSITION TIME TEMP WIND PRES WAVE SWELL AIR SEA DIR/SP/G HT/PER HT/PER/DIR (UTC) (F) (DEG/KT/KT) (MB) (FT/S) (FT/S/D) UPR LAKE MARION NOT AVBL WINYAH BAY 1400 67 240/ 6 1009.0F LAKE MURRAY 1400 54 300/ 9/ 12 1007.8R ACE BASIN NERRS 1400 67 160/ 4 1010.0R FORT PULASKI 1500 63 56 190/ 9/ 16 1010.5R SAPELO ISLAND 1400 63 160/ 13 1009.0S $$ ANZ835-935-AMZ111-154-330-350-352-354-370-450-454-472-241600- ...C-MAN AND BUOY OBSERVATIONS... STATION/POSITION TIME TEMP WIND PRES WAVE SWELL AIR SEA DIR/SP/G HT/PER HT/PER/DIR (UTC) (F) (DEG/KT/KT) (MB) (FT/S) (FT/S/D) BUOY 41004 1500 77 73 180/ 23/ 29 1009.9R 8/ 7 BUOY 41008 1500 65 59 180/ 19/ 23 1010.2R 5/ 7 FOLLY BEACH CMAN 1400 62 200/ 6/ 7 1010.5R CAPERS NEARSHORE 1400 60 270/ 10/ 12 N/A FRIPP NEARSHORE NOT AVBL STATION/POSITION TIME TEMP WIND PRES WAVE SWELL AIR SEA DIR/SP/G HT/PER HT/PER/DIR (UTC) (F) (DEG/KT/KT) (MB) (FT/S) (FT/S/D) 5E ST. MARYS GA 1500 61 N/A 5/ 6 FRYING PAN BUOY 1500 74 70 180/ 23/ 29 1011.5S 8/ 7 BUOY 41025 1500 75 1013.3S 7/ 6 CAPE LOOKOUT NC 1400 65 170/ 17/ 18 1012.6R BUOY 41002 1354 74 72 190/ 16/ 17 1017.5 5/ 5 2/ 90/10 BUOY 41010 1500 77 77 170/ 21/ 25 1014.8F 5/ 6 2/100/10 ST AUGUSTINE FL 1500 74 190/ 16/ 18 1012.4F $$

USA.gov is the U.S. government's official web portal to all federal, state and local government web resources and services.